Onweer radar Meer informatie blitzortung!


Regen radar Meer informatie rain snow radar


Bezoek onze andere website:

Template documentation
and downloads

And another site



15 daagse weersverwachting Charleroi (BE)

  • Overzicht
  • Per uur
  • 15 dagen
  • Extra
  • Vergelijk
  • Kaarten
  • Dagkaart
  • Meer »
  • Info
  • Statistieken
  • Directe link
    Temp 6h Neerslag Wind  
 06:13     21:25    Daglengte: 15:12 Morgen
02:00
13°
 
3
08:00
13°
 
3
14:00
18°
 
4
20:00
17°
4.5 mm
3
 06:14     21:24    Daglengte: 15:10 Maandag 02 Aug
02:00
14°
1.3 mm
1
08:00
14°
 
2
14:00
18°
1.7 mm
2
20:00
17°
11.4 mm
2
 06:15     21:22    Daglengte: 15:07 Dinsdag 03 Aug
02:00
14°
6.9 mm
1
08:00
14°
 
2
14:00
18°
19.7 mm
3
20:00
19°
3.9 mm
2
Locatie info
Region: Wallonien
Latitude: 50.4102°N
Longitude: 4.4432°E
136 masl
Postcode: 6000
Temp/Neerslag /Baro Onweer/Dauwpunt
    Temp Baro 1h Neerslag Dauwpunt Wind UV Bewolking  
 06:13     21:25    Daglengte: 15:12 Morgen
00:00
15°
1011.1 hPa
48%
12.6°
3
Windvlaag: 3.6 m/s
19%
01:00
14°
1011.2 hPa
14%
12.3°
3
Windvlaag: 3.5 m/s
24%
02:00
13°
1011.1 hPa
14%
11.8°
3
Windvlaag: 3.6 m/s
3%
03:00
13°
1010.9 hPa
14%
11.6°
3
Windvlaag: 3.4 m/s
3%
04:00
12°
1010.4 hPa
14%
11.5°
3
Windvlaag: 3.5 m/s
7%
05:00
12°
1010.4 hPa
14%
11.5°
3
Windvlaag: 4 m/s
50%
06:00
12°
1010.5 hPa
15%
11.7°
3
Windvlaag: 4.2 m/s
63%
07:00
13°
1010.5 hPa
14%
12.1°
3
Windvlaag: 4.1 m/s
73%
08:00
13°
1010.6 hPa
15%
12.6°
3
Windvlaag: 4.4 m/s
69%
09:00
14°
1010.7 hPa
23%
13.0°
4
Windvlaag: 5 m/s
86%
10:00
15°
1010.9 hPa
61%
12.7°
4
Windvlaag: 5 m/s
73%
11:00
16°
1011.1 hPa
74%
12.1°
4
Windvlaag: 4.9 m/s
56%
12:00
17°
1011.1 hPa
81%
13.2°
4
Windvlaag: 3.5 m/s
15%
13:00
18°
1010.9 hPa
82%
14.4°
4
Windvlaag: 2.7 m/s
15%
14:00
18°
1010.8 hPa
82%
15.0°
4
Windvlaag: 2.6 m/s
43%
15:00
19°
1010.8 hPa
82%
15.0°
5
Windvlaag: 2.8 m/s
50%
16:00
19°
1010.9 hPa 0.7 mm
82%
14.9°
4
Windvlaag: 3.2 m/s
55%
17:00
18°
1010.9 hPa 0.7 mm
82%
15.2°
4
Windvlaag: 2.9 m/s
51% warningclass
18:00
18°
1011.0 hPa 1.1 mm
79%
15.2°
4
Windvlaag: 1.7 m/s
39% warningclass
19:00
17°
1011.0 hPa 0.8 mm
79%
14.7°
3
Windvlaag: 1.2 m/s
46% warningclass
20:00
17°
1011.3 hPa 1.1 mm
80%
14.9°
3
Windvlaag: 1.4 m/s
49%
21:00
16°
1011.4 hPa
76%
14.5°
2
Windvlaag: -0 m/s
37%
22:00
15°
1012.1 hPa
30%
14.3°
2
Windvlaag: -0.4 m/s
15%
23:00
15°
1012.5 hPa 1.3 mm
78%
14.1°
2
Windvlaag: 1.2 m/s
16%
 06:14     21:24    Daglengte: 15:10 Maandag 02 Aug
00:00
14°
1012.7 hPa
75%
13.8°
1
Windvlaag: 2.1 m/s
48%
01:00
14°
1012.7 hPa
14%
13.6°
1
Windvlaag: 1.6 m/s
73%
02:00
14°
1012.6 hPa
15%
13.6°
1
Windvlaag: 1.2 m/s
60%
03:00
14°
1012.5 hPa
19%
13.4°
1
Windvlaag: 1.4 m/s
55%
04:00
14°
1012.7 hPa
20%
13.5°
2
Windvlaag: 1.8 m/s
80%
05:00
14°
1012.5 hPa
18%
13.5°
2
Windvlaag: 2.2 m/s
57%
06:00
14°
1012.8 hPa
14%
13.2°
2
Windvlaag: 2.5 m/s
60%
07:00
14°
1013.1 hPa
17%
13.1°
2
Windvlaag: 2.6 m/s
64%
08:00
14°
1013.4 hPa
19%
13.2°
2
Windvlaag: 2.5 m/s
65%
09:00
15°
1013.6 hPa
24%
13.6°
2
Windvlaag: 3.5 m/s
63%
10:00
15°
1013.8 hPa
71%
13.8°
2
Windvlaag: 3.4 m/s
61%
11:00
15°
1014.1 hPa 1.7 mm
73%
14.0°
2
Windvlaag: 4.2 m/s
51%
12:00
16°
1014.1 hPa
69%
14.4°
2
Windvlaag: 3.9 m/s
54%
13:00
17°
1014.1 hPa
79%
14.4°
2
Windvlaag: 3 m/s
22%
14:00
18°
1014.0 hPa
82%
14.3°
2
Windvlaag: -1 m/s
50%
15:00
19°
1013.9 hPa
80%
13.1°
2
Windvlaag: -1.6 m/s
62%
16:00
19°
1013.8 hPa 1.4 mm
82%
12.1°
2
Windvlaag: -2.2 m/s
60%
17:00
19°
1013.2 hPa 2.4 mm
100%
13.1°
2
Windvlaag: -2.3 m/s
62%
18:00
17°
1013.1 hPa 2.4 mm
100%
15.2°
3
Windvlaag: -1.7 m/s
93% warningclass
19:00
17°
1013.0 hPa 5.2 mm
100%
12.9°
2
Windvlaag: -1.1 m/s
90% warningclass
20:00
17°
1013.1 hPa
100%
15.1°
2
Windvlaag: 0 m/s
87%
21:00
16°
1013.4 hPa
100%
13.8°
1
Windvlaag: -1.4 m/s
84%
22:00
15°
1013.9 hPa 3.6 mm
97%
13.3°
2
Windvlaag: -1.3 m/s
84%
23:00
15°
1014.0 hPa 3.2 mm
92%
13.8°
1
Windvlaag: -1 m/s
97%
 06:15     21:22    Daglengte: 15:07 Dinsdag 03 Aug
00:00
15°
1014.1 hPa
33%
13.5°
1
Windvlaag: -0.7 m/s
95%
01:00
14°
1014.1 hPa
37%
12.6°
1
Windvlaag: -0.1 m/s
87%
02:00
14°
1013.9 hPa
23%
11.8°
1
Windvlaag: -0.3 m/s
98%
03:00
14°
1013.6 hPa
21%
10.5°
1
Windvlaag: -0.4 m/s
99%
04:00
13°
1013.4 hPa
29%
10.5°
2
Windvlaag: -1 m/s
96%
05:00
13°
1013.2 hPa
74%
10.3°
2
Windvlaag: -0.8 m/s
98%
06:00
13°
1013.3 hPa
35%
10.4°
2
Windvlaag: -1 m/s
100%
07:00
13°
1013.3 hPa
30%
10.0°
2
Windvlaag: -1.9 m/s
99%
08:00
14°
1013.5 hPa
31%
10.2°
2
Windvlaag: -1.9 m/s
100%
09:00
15°
1013.6 hPa 4.1 mm
35%
10.7°
2
Windvlaag: -1.6 m/s
90%
10:00
16°
1013.6 hPa 4.1 mm
44%
11.0°
2
Windvlaag: -1.4 m/s
97%
11:00
16°
1013.6 hPa 4.1 mm
90%
11.1°
2
Windvlaag: -2.3 m/s
97%
12:00
17°
1013.6 hPa 2.5 mm
98%
10.0°
2
Windvlaag: -2.5 m/s
93%
13:00
17°
1013.5 hPa 2.5 mm
99%
9.1°
3
Windvlaag: -2.7 m/s
94%
14:00
18°
1013.1 hPa 2.4 mm
100%
8.5°
3
Windvlaag: -2.8 m/s
84%
15:00
19°
1012.7 hPa
100%
9.0°
2
Windvlaag: 3.2 m/s
20%
16:00
20°
1012.6 hPa
100%
8.8°
2
Windvlaag: 3.1 m/s
55%
17:00
20°
1012.5 hPa 3.9 mm
100%
8.1°
2
Windvlaag: 3.5 m/s
10%
18:00
20°
1012.2 hPa
92%
7.8°
2
Windvlaag: 3.3 m/s
17%
19:00
20°
1012.1 hPa
42%
8.1°
2
Windvlaag: 2.8 m/s
58%
20:00
19°
1012.5 hPa
40%
8.0°
2
Windvlaag: 2.4 m/s
60%
21:00
18°
1011.8 hPa 11.4 mm
100%
9.6°
2
Windvlaag: 2.9 m/s
68%
22:00
17°
1012.2 hPa 11.4 mm
100%
9.9°
3
Windvlaag: 5 m/s
77%
23:00
17°
1012.2 hPa 11.4 mm
100%
10.8°
4
Windvlaag: 6.4 m/s
73%
Temp/Neerslag /Baro Onweer/Dauwpunt
    Temp Baro Neerslag Dauwpunt Wind Bewolking  
 06:13     21:25    Daglengte: 15:12 Morgen
02:00
13°
1011.1 hPa   11.8°
3
3%
05:00
12°
1010.4 hPa   11.5°
3
50%
08:00
13°
1010.6 hPa   12.6°
3
69%
11:00
16°
1011.1 hPa   12.1°
4
56%
14:00
18°
1010.8 hPa   15.0°
4
43%
17:00
18°
1010.9 hPa 1.4 mm 15.2°
4
51% warningclass
20:00
17°
1011.3 hPa 3.0 mm 14.9°
3
49%
23:00
15°
1012.5 hPa 1.3 mm 14.1°
2
16%
 06:14     21:24    Daglengte: 15:10 Maandag 02 Aug
02:00
14°
1012.6 hPa   13.6°
1
60%
05:00
14°
1012.5 hPa   13.5°
2
57%
08:00
14°
1013.4 hPa   13.2°
2
65%
11:00
15°
1014.1 hPa 1.7 mm 14.0°
2
51%
14:00
18°
1014.0 hPa   14.3°
2
50%
17:00
19°
1013.2 hPa 3.8 mm 13.1°
2
62%
20:00
17°
1013.1 hPa 7.5 mm 15.1°
2
87%
23:00
15°
1014.0 hPa 6.9 mm 13.8°
1
97%
 06:15     21:22    Daglengte: 15:07 Dinsdag 03 Aug
02:00
14°
1013.9 hPa   11.8°
1
98%
05:00
13°
1013.2 hPa   10.3°
2
98%
08:00
14°
1013.5 hPa   10.2°
2
100%
11:00
16°
1013.6 hPa 12.3 mm 11.1°
2
97%
14:00
18°
1013.1 hPa 7.4 mm 8.5°
3
84%
17:00
20°
1012.5 hPa 3.9 mm 8.1°
2
10%
20:00
19°
1012.5 hPa   8.0°
2
60%
23:00
17°
1012.2 hPa 34.2 mm 10.8°
4
73%
 06:17     21:21    Daglengte: 15:04 Woensdag 04 Aug
02:00
16°
1012.3 hPa 34.2 mm 10.5°
4
73%
05:00
13°
1012.5 hPa 21.5 mm 10.6°
2
1%
08:00
13°
1013.2 hPa 21.5 mm 10.8°
2
1%
11:00
15°
1013.8 hPa 21.7 mm 11.5°
3
1%
14:00
15°
1014.3 hPa 22.1 mm 12.1°
3
1%
17:00
16°
1014.8 hPa 22.4 mm 12.5°
3
1%
20:00
16°
1014.6 hPa 23.5 mm 13.4°
2
1%
23:00
12°
1015.7 hPa 23.8 mm 11.5°
2
0%
 06:18     21:19    Daglengte: 15:01 Donderdag 05 Aug
02:00
11°
1015.3 hPa 23.8 mm 10.7°
3
0%
05:00
12°
1014.0 hPa 23.8 mm 11.5°
3
1%
08:00
12°
1013.1 hPa 23.8 mm 10.6°
3
1%
11:00
15°
1011.8 hPa 23.8 mm 11.0°
5
1%
14:00
16°
1009.9 hPa 24.3 mm 12.6°
5
1%
17:00
14°
1008.1 hPa 26.3 mm 12.5°
5
1%
20:00
13°
1005.9 hPa 27.3 mm 12.3°
7
1%
23:00
14°
1004.8 hPa 27.5 mm 13.1°
6
1%
 06:20     21:17    Daglengte: 14:57 Vrijdag 06 Aug
02:00
14°
1003.9 hPa 28.4 mm 13.5°
6
1%
05:00
14°
1003.2 hPa 28.8 mm 13.0°
7
1%
08:00
14°
1002.5 hPa 31.7 mm 13.1°
7
1%
11:00
14°
1003.0 hPa 34.0 mm 13.6°
9
1%
14:00
16°
1004.1 hPa 34.5 mm 14.2°
9
1%
17:00
17°
1004.4 hPa 35.9 mm 14.5°
8
1%
20:00
16°
1006.2 hPa 36.9 mm 13.9°
8
1%
23:00
14°
1008.4 hPa 36.9 mm 11.9°
6
0%
 06:21     21:15    Daglengte: 14:54 Zaterdag 07 Aug
02:00
13°
1009.4 hPa 36.9 mm 11.8°
6
0%
05:00
12°
1009.8 hPa 36.9 mm 11.3°
5
1%
08:00
13°
1010.2 hPa 36.9 mm 11.5°
4
1%
11:00
17°
1010.1 hPa 36.9 mm 11.7°
5
1%
14:00
20°
1009.4 hPa 37.0 mm 12.2°
5
1%
17:00
20°
1009.2 hPa 37.2 mm 13.0°
5
1%
20:00
17°
1009.1 hPa 37.3 mm 12.9°
4
1%
23:00
17°
1008.7 hPa   12.9°
4
1%
 06:23     21:14    Daglengte: 14:51 Zondag 08 Aug
02:00
16°
1008.3 hPa 74.9 mm 14.0°
4
1%
08:00
16°
1008.3 hPa 95.8 mm 15.3°
5
1%
14:00
20°
1010.8 hPa 115.7 mm 13.7°
9
0%
20:00
16°
1012.8 hPa 117.5 mm 12.9°
9
0%
 06:24     21:12    Daglengte: 14:48 Maandag 09 Aug
02:00
13°
1016.7 hPa 118.5 mm 10.5°
7
0%
08:00
13°
1019.2 hPa 118.6 mm 11.0°
7
1%
14:00
17°
1021.5 hPa 119.5 mm 14.2°
7
1%
20:00
16°
1023.2 hPa 122.7 mm 12.0°
5
1%
 06:26     21:10    Daglengte: 14:44 Dinsdag 10 Aug
02:00
12°
1025.0 hPa 122.9 mm 10.7°
3
1%
08:00
12°
1024.9 hPa 122.9 mm 11.0°
3
1%
14:00
19°
1024.6 hPa 123.0 mm 14.5°
4
1%
20:00
20°
1020.1 hPa 0.4 mm 11.6°
3
51%
 06:27     21:08    Daglengte: 14:41 Woensdag 11 Aug
02:00
15°
1021.2 hPa 0.1 mm 10.4°
1
37%
08:00
15°
1021.1 hPa   10.6°
1
41%
14:00
21°
1020.4 hPa 0.2 mm 10.2°
2
46%
20:00
20°
1020.0 hPa 0.6 mm 10.9°
2
48%
 06:29     21:06    Daglengte: 14:37 Donderdag 12 Aug
02:00
16°
1020.7 hPa   10.6°
0
38%
08:00
15°
1020.4 hPa 0.1 mm 10.9°
0
44%
14:00
22°
1019.8 hPa 0.4 mm 11.5°
1
57%
20:00
21°
1019.3 hPa 0.4 mm 12.0°
1
50%
 06:30     21:05    Daglengte: 14:35 Vrijdag 13 Aug
02:00
17°
1020.1 hPa 0.1 mm 11.3°
0
46%
08:00
16°
1020.2 hPa 0.2 mm 11.4°
1
51%
14:00
22°
1019.8 hPa 0.4 mm 11.5°
1
53%
20:00
21°
1019.1 hPa 0.2 mm 12.0°
1
47%
 06:32     21:03    Daglengte: 14:31 Zaterdag 14 Aug
02:00
17°
1019.7 hPa 0.7 mm 11.7°
0
51%
08:00
16°
1019.5 hPa 0.3 mm 11.9°
1
57%
14:00
22°
1019.0 hPa 0.4 mm 12.2°
1
54%
20:00
21°
1018.2 hPa 0.5 mm 12.6°
1
45%
 06:33     21:01    Daglengte: 14:28 Zondag 15 Aug
02:00
16°
1018.8 hPa 0.2 mm 11.7°
1
45%
08:00
16°
1018.5 hPa 0.2 mm 12.1°
1
41%
14:00
22°
1018.1 hPa 0.2 mm 12.7°
2
58%
20:00
21°
1017.7 hPa 0.4 mm 12.4°
2
52%
  CAPE Lifted Index Hail Supercell Tornado SRH 3km CL BTM PRES CL TOP PRES Swiss DWD icon SMHI TS
 06:13     21:25    Daglengte: 15:12 Morgen
00:00 0 J/kg 0.7 K 0 % 0 % 0 % 0 m²/s² 0 0 2.47 2
01:00 0 J/kg 1.0 K 0 % 0 % 0 % 0 m²/s² 0 0 2.53 2
02:00 0 J/kg 2.2 K 0 % 0 % 0 % 0 m²/s² 0 0 3.79 1
03:00 0 J/kg 3.7 K 0 % 0 % 0 % 0 m²/s² 0 0 5.35 1
04:00 0 J/kg 3.9 K 0 % 0 % 0 % 0 m²/s² 0 0 5.49 1
05:00 0 J/kg 3.4 K 0 % 0 % 0 % 0 m²/s² 0 0 4.78 2
06:00 1 J/kg 3.0 K 0 % 0 % 0 % 0 m²/s² 0 0 4.53 2
07:00 2 J/kg 1.8 K 0 % 0 % 0 % 0 m²/s² 0 0 3.33 3
08:00 2 J/kg 0.9 K 0 % 0 % 0 % 0 m²/s² 0 0 2.43 3
09:00 2 J/kg 0.6 K 0 % 0 % 0 % 0 m²/s² 0 0 2.07 3
10:00 3 J/kg 0.3 K 0 % 0 % 0 % 0 m²/s² 0 0 2.01 3
11:00 23 J/kg 0.2 K 0 % 0 % 0 % 0 m²/s² 0 0 1.73 3
12:00 274 J/kg -0.7 K 0 % 0 % 0 % 0 m²/s² 0 0 0.77 80
13:00 617 J/kg -2.2 K 0 % 0 % 0 % 0 m²/s² 0 0 -0.73 80
14:00 686 J/kg -2.6 K 0 % 0 % 0 % 0 m²/s² 0 0 -1.28 3
15:00 595 J/kg -2.2 K 0 % 0 % 0 % 0 m²/s² 0 0 -0.76 3
16:00 632 J/kg -2.4 K 0 % 0 % 0 % 0 m²/s² 0 0 -0.96 80
17:00 428 J/kg -1.9 K 0 % 0 % 0 % 0 m²/s² 0 0 -0.67 95
18:00 348 J/kg -1.5 K 0 % 0 % 0 % 0 m²/s² 0 0 -0.78 95
19:00 538 J/kg -2.2 K 0 % 0 % 0 % 0 m²/s² 0 0 -1.27 95
20:00 314 J/kg -1.0 K 0 % 0 % 0 % 0 m²/s² 0 0 -0.82 80
21:00 53 J/kg 0.5 K 0 % 0 % 0 % 0 m²/s² 0 0 1.01 3
22:00 90 J/kg 0.0 K 0 % 0 % 0 % 0 m²/s² 0 0 1.02 2
23:00 101 J/kg 0.4 K 0 % 0 % 0 % 0 m²/s² 0 0 1.72 2
 06:14     21:24    Daglengte: 15:10 Maandag 02 Aug
00:00 132 J/kg 0.4 K 0 % 0 % 0 % 0 m²/s² 0 0 1.33 3
01:00 161 J/kg 0.3 K 0 % 0 % 0 % 0 m²/s² 0 0 0.93 3
02:00 117 J/kg 0.4 K 0 % 0 % 0 % 0 m²/s² 0 0 1.66 3
03:00 67 J/kg 0.5 K 0 % 0 % 0 % 0 m²/s² 0 0 1.82 3
04:00 23 J/kg 0.5 K 0 % 0 % 0 % 0 m²/s² 0 0 1.31 3
05:00 4 J/kg 0.7 K 0 % 0 % 0 % 0 m²/s² 0 0 1.81 3
06:00 2 J/kg 0.9 K 0 % 0 % 0 % 0 m²/s² 0 0 1.92 3
07:00 1 J/kg 1.9 K 0 % 0 % 0 % 0 m²/s² 0 0 3.61 3
08:00 1 J/kg 3.4 K 0 % 0 % 0 % 0 m²/s² 0 0 5.11 3
09:00 1 J/kg 2.9 K 0 % 0 % 0 % 0 m²/s² 0 0 3.92 3
10:00 2 J/kg 1.6 K 0 % 0 % 0 % 0 m²/s² 0 0 2.8 3
11:00 13 J/kg 1.5 K 0 % 0 % 0 % 0 m²/s² 0 0 2.55 3
12:00 16 J/kg 1.0 K 0 % 0 % 0 % 0 m²/s² 0 0 2.17 3
13:00 104 J/kg 0.9 K 0 % 0 % 0 % 0 m²/s² 0 0 2.07 80
14:00 270 J/kg -0.2 K 0 % 0 % 0 % 0 m²/s² 0 0 0.91 2
15:00 297 J/kg -0.4 K 0 % 0 % 0 % 0 m²/s² 0 0 0.32 3
16:00 427 J/kg -1.1 K 0 % 0 % 0 % 0 m²/s² 0 0 0.28 80
17:00 567 J/kg -1.8 K 0 % 0 % 0 % 0 m²/s² 0 0 0.03 80
18:00 352 J/kg -1.7 K 0 % 0 % 0 % 0 m²/s² 0 0 -1.28 95
19:00 475 J/kg -1.8 K 0 % 0 % 0 % 0 m²/s² 0 0 0.36 95
20:00 559 J/kg -2.0 K 0 % 0 % 0 % 0 m²/s² 0 0 -0.17 3
21:00 362 J/kg -1.3 K 0 % 0 % 0 % 0 m²/s² 0 0 0.53 3
22:00 262 J/kg -0.9 K 0 % 0 % 0 % 0 m²/s² 0 0 0.42 80
23:00 161 J/kg -0.4 K 0 % 0 % 0 % 0 m²/s² 0 0 -0.22 3
 06:15     21:22    Daglengte: 15:07 Dinsdag 03 Aug
00:00 55 J/kg 0.4 K 0 % 0 % 0 % 0 m²/s² 0 0 0.49 3
01:00 3 J/kg 0.7 K 0 % 0 % 0 % 0 m²/s² 0 0 2.08 45
02:00 0 J/kg 0.1 K 0 % 0 % 0 % 0 m²/s² 0 0 1.27 45
03:00 0 J/kg -0.4 K 0 % 0 % 0 % 0 m²/s² 0 0 0.2 45
04:00 0 J/kg -0.1 K 0 % 0 % 0 % 0 m²/s² 0 0 0.41 45
05:00 0 J/kg -0.4 K 0 % 0 % 0 % 0 m²/s² 0 0 0.23 45
06:00 0 J/kg -0.4 K 0 % 0 % 0 % 0 m²/s² 0 0 -0.07 45
07:00 0 J/kg 0.0 K 0 % 0 % 0 % 0 m²/s² 0 0 0.42 45
08:00 0 J/kg 0.7 K 0 % 0 % 0 % 0 m²/s² 0 0 1.42 45
09:00 0 J/kg 1.4 K 0 % 0 % 0 % 0 m²/s² 0 0 2.18 3
10:00 0 J/kg 1.6 K 0 % 0 % 0 % 0 m²/s² 0 0 2.29 3
11:00 10 J/kg 1.9 K 0 % 0 % 0 % 0 m²/s² 0 0 2.59 3
12:00 10 J/kg 2.7 K 0 % 0 % 0 % 0 m²/s² 0 0 3.42 80
13:00 18 J/kg 3.1 K 0 % 0 % 0 % 0 m²/s² 0 0 3.82 80
14:00 11 J/kg 2.8 K 0 % 0 % 0 % 0 m²/s² 0 0 3.64 3
15:00 4 J/kg 2.8 K 0 % 0 % 0 % 0 m²/s² 0 0 3.76 3
16:00 9 J/kg 2.6 K 0 % 0 % 0 % 0 m²/s² 0 0 3.38 3
17:00 3 J/kg 3.2 K 0 % 0 % 0 % 0 m²/s² 0 0 4.13 2
18:00 16 J/kg 3.4 K 0 % 0 % 0 % 0 m²/s² 0 0 4.57 2
19:00 21 J/kg 4.0 K 0 % 0 % 0 % 0 m²/s² 0 0 5.62 3
20:00 20 J/kg 4.6 K 0 % 0 % 0 % 0 m²/s² 0 0 6.16 3
21:00 4 J/kg 4.9 K 0 % 0 % 0 % 0 m²/s² 0 0 6.34
22:00 26 J/kg 4.5 K 0 % 0 % 0 % 0 m²/s² 0 0 6.12
23:00 20 J/kg 4.8 K 0 % 0 % 0 % 0 m²/s² 0 0 6.42
Temp Baro Wind Neerslag
  EWN Forecast EWN WRFDA DWD ICON FMI HIRLAM MET Norway GFS
 06:13     21:25    Daglengte: 15:12 Morgen
02:00 13.3° 1011.1 hPa 2.7 m/s 0.0 mm 10.9° 1010.0 hPa 2.7 m/s 1.3 mm 14.0° 1011.4 hPa 2.0 m/s -1.4 mm 13.4° 1010.5 hPa 2.8 m/s 0.0 mm 11.1° 1011.2 hPa 2.8 m/s
05:00 12.2° 1010.4 hPa 2.9 m/s 0.0 mm 9.8° 1009.1 hPa 3.2 m/s 1.3 mm 12.4° 1010.6 hPa 2.1 m/s 0.0 mm 12.5° 1010.2 hPa 2.9 m/s 0.0 mm 10.1° 1011.0 hPa 3.2 m/s
08:00 13.3° 1010.6 hPa 3.2 m/s 0.0 mm 11.5° 1009.0 hPa 3.1 m/s 1.3 mm 13.5° 1010.8 hPa 2.8 m/s 0.0 mm 13.5° 1009.9 hPa 4.0 m/s 0.0 mm 12.3° 1010.9 hPa 4.0 m/s
11:00 16.0° 1011.1 hPa 3.8 m/s 0.0 mm 13.9° 1009.8 hPa 3.8 m/s 1.4 mm 16.1° 1011.4 hPa 3.4 m/s 0.1 mm 17.8° 1009.9 hPa 4.2 m/s 0.0 mm 17.0° 1011.2 hPa 4.9 m/s
14:00 18.4° 1010.8 hPa 4.4 m/s 0.0 mm 19.3° 1009.5 hPa 4.7 m/s 1.5 mm 18.7° 1011.4 hPa 3.8 m/s 0.7 mm 18.3° 1009.8 hPa 4.6 m/s 0.0 mm 17.8° 1011.1 hPa 5.4 m/s
17:00 18.1° 1010.9 hPa 4.2 m/s 1.4 mm 17.4° 1009.2 hPa 5.5 m/s 2.5 mm 18.3° 1011.3 hPa 3.4 m/s 1.3 mm 18.4° 1009.4 hPa 4.9 m/s 0.0 mm 19.2° 1011.2 hPa 5.3 m/s
20:00 16.7° 1011.3 hPa 3.0 m/s 3.0 mm 15.9° 1010.1 hPa 5.2 m/s 8.3 mm 16.8° 1011.5 hPa 2.8 m/s 2.8 mm 16.8° 1010.2 hPa 3.1 m/s 0.0 mm 16.5° 1011.5 hPa 3.3 m/s
23:00 14.7° 1012.5 hPa 1.5 m/s 1.3 mm 13.3° 1010.9 hPa 2.1 m/s 16.6 mm 14.9° 1012.7 hPa 1.6 m/s 0.1 mm 14.9° 1012.3 hPa 1.5 m/s 0.0 mm 13.0° 1013.2 hPa 1.7 m/s
 06:14     21:24    Daglengte: 15:10 Maandag 02 Aug
02:00 14.4° 1012.6 hPa 1.4 m/s 0.0 mm 13.9° 1011.1 hPa 2.1 m/s 16.8 mm 14.3° 1012.8 hPa 1.4 m/s 0.0 mm 14.9° 1012.1 hPa 1.4 m/s 0.0 mm 11.9° 1013.5 hPa 1.0 m/s
05:00 13.8° 1012.5 hPa 1.8 m/s 0.0 mm 11.3° 1011.1 hPa 2.9 m/s 18.0 mm 13.9° 1012.7 hPa 1.8 m/s 0.0 mm 14.1° 1012.2 hPa 1.2 m/s 0.0 mm 11.1° 1013.9 hPa 1.1 m/s
08:00 14.0° 1013.4 hPa 2.0 m/s 0.0 mm 11.4° 1012.1 hPa 2.1 m/s 18.1 mm 14.3° 1013.5 hPa 2.3 m/s 0.0 mm 14.6° 1013.2 hPa 1.4 m/s 0.0 mm 13.2° 1014.6 hPa 1.0 m/s
11:00 15.2° 1014.1 hPa 2.2 m/s 1.7 mm 14.7° 1012.8 hPa 4.3 m/s 18.1 mm 16.7° 1013.8 hPa 2.8 m/s 0.2 mm 15.3° 1014.2 hPa 1.3 m/s 0.0 mm 17.0° 1014.6 hPa 2.0 m/s
14:00 18.3° 1014.0 hPa 1.5 m/s 0.0 mm 18.5° 1012.7 hPa 4.3 m/s 18.3 mm 18.9° 1013.8 hPa 2.5 m/s 0.4 mm 18.7° 1014.2 hPa 1.1 m/s 0.0 mm 19.6° 1013.8 hPa 2.7 m/s
17:00 19.2° 1013.2 hPa 2.3 m/s 3.8 mm 20.3° 1011.9 hPa 4.0 m/s 19.2 mm 19.7° 1013.3 hPa 1.5 m/s 0.5 mm 19.1° 1013.5 hPa 2.2 m/s
20:00 17.2° 1013.1 hPa 1.6 m/s 7.5 mm 17.4° 1012.3 hPa 3.7 m/s 26.7 mm 17.3° 1013.0 hPa 0.8 m/s 4.8 mm 18.2° 1013.1 hPa 1.4 m/s
23:00 15.5° 1014.0 hPa 1.5 m/s 6.9 mm 15.6° 1012.7 hPa 1.5 m/s 28.0 mm 15.8° 1014.0 hPa 0.8 m/s 1.1 mm 14.2° 1013.7 hPa 1.8 m/s
 06:15     21:22    Daglengte: 15:07 Dinsdag 03 Aug
02:00 14.0° 1013.9 hPa 1.4 m/s 0.0 mm 13.8° 1012.8 hPa 2.6 m/s 33.9 mm 14.2° 1014.1 hPa 0.4 m/s 0.0 mm 13.6° 1013.1 hPa 1.9 m/s
05:00 13.3° 1013.2 hPa 1.7 m/s 0.0 mm 12.7° 1011.8 hPa 2.2 m/s 34.1 mm 13.8° 1013.5 hPa 0.4 m/s 0.0 mm 12.8° 1012.4 hPa 1.5 m/s
08:00 13.8° 1013.5 hPa 1.8 m/s 0.0 mm 13.8° 1011.8 hPa 1.9 m/s 34.2 mm 14.1° 1013.7 hPa 0.9 m/s 0.0 mm 13.3° 1012.8 hPa 0.4 m/s
11:00 16.3° 1013.6 hPa 2.4 m/s 12.3 mm 16.8° 1011.8 hPa 3.2 m/s 34.2 mm 17.1° 1013.9 hPa 1.4 m/s 0.1 mm 13.8° 1012.5 hPa 0.6 m/s
14:00 17.6° 1013.1 hPa 2.9 m/s 7.4 mm 19.7° 1010.9 hPa 3.4 m/s 34.2 mm 17.8° 1013.4 hPa 1.3 m/s 0.8 mm 14.1° 1012.7 hPa 2.1 m/s
17:00 19.7° 1012.5 hPa 2.1 m/s 3.9 mm 20.9° 1011.2 hPa 2.9 m/s 34.2 mm 19.4° 1012.8 hPa 1.9 m/s 0.3 mm 15.9° 1012.9 hPa 3.5 m/s
20:00 19.3° 1012.5 hPa 1.9 m/s 0.0 mm 20.4° 1011.4 hPa 2.3 m/s 34.2 mm 19.0° 1012.8 hPa 1.8 m/s 0.0 mm 14.1° 1013.3 hPa 2.7 m/s
23:00 16.8° 1012.2 hPa 3.7 m/s 34.2 mm 16.8° 1012.2 hPa 3.7 m/s 34.2 mm 13.1° 1014.0 hPa 1.9 m/s
 06:17     21:21    Daglengte: 15:04 Woensdag 04 Aug
02:00 16.1° 1012.3 hPa 4.5 m/s 34.2 mm 16.1° 1012.3 hPa 4.5 m/s 34.2 mm 13.1° 1013.4 hPa 1.6 m/s
05:00 12.7° 1012.5 hPa 1.8 m/s 21.5 mm 12.7° 1012.5 hPa 1.8 m/s 21.5 mm
08:00 13.5° 1013.2 hPa 1.9 m/s 21.5 mm 13.5° 1013.2 hPa 1.9 m/s 21.5 mm
11:00 15.3° 1013.8 hPa 3.0 m/s 21.7 mm 15.3° 1013.8 hPa 3.0 m/s 21.7 mm
14:00 15.3° 1014.3 hPa 2.8 m/s 22.1 mm 15.3° 1014.3 hPa 2.8 m/s 22.1 mm
17:00 15.7° 1014.8 hPa 2.5 m/s 22.4 mm 15.7° 1014.8 hPa 2.5 m/s 22.4 mm
20:00 15.9° 1014.6 hPa 2.0 m/s 23.5 mm 15.9° 1014.6 hPa 2.0 m/s 23.5 mm
23:00 12.3° 1015.7 hPa 2.4 m/s 23.8 mm 12.3° 1015.7 hPa 2.4 m/s 23.8 mm
 06:18     21:19    Daglengte: 15:01 Donderdag 05 Aug
02:00 11.2° 1015.3 hPa 2.6 m/s 23.8 mm 11.2° 1015.3 hPa 2.6 m/s 23.8 mm
05:00 11.6° 1014.0 hPa 3.0 m/s 23.8 mm 11.6° 1014.0 hPa 3.0 m/s 23.8 mm
08:00 11.9° 1013.1 hPa 2.8 m/s 23.8 mm 11.9° 1013.1 hPa 2.8 m/s 23.8 mm
11:00 14.9° 1011.8 hPa 4.7 m/s 23.8 mm 14.9° 1011.8 hPa 4.7 m/s 23.8 mm
14:00 15.6° 1009.9 hPa 5.3 m/s 24.3 mm 15.6° 1009.9 hPa 5.3 m/s 24.3 mm
17:00 13.8° 1008.1 hPa 4.8 m/s 26.3 mm 13.8° 1008.1 hPa 4.8 m/s 26.3 mm
20:00 13.4° 1005.9 hPa 6.5 m/s 27.3 mm 13.4° 1005.9 hPa 6.5 m/s 27.3 mm
23:00 13.9° 1004.8 hPa 5.7 m/s 27.5 mm 13.9° 1004.8 hPa 5.7 m/s 27.5 mm
 06:20     21:17    Daglengte: 14:57 Vrijdag 06 Aug
02:00 14.3° 1003.9 hPa 5.7 m/s 28.4 mm 14.3° 1003.9 hPa 5.7 m/s 28.4 mm
05:00 13.8° 1003.2 hPa 6.7 m/s 28.8 mm 13.8° 1003.2 hPa 6.7 m/s 28.8 mm
08:00 13.8° 1002.5 hPa 7.3 m/s 31.7 mm 13.8° 1002.5 hPa 7.3 m/s 31.7 mm
11:00 14.4° 1003.0 hPa 8.8 m/s 34.0 mm 14.4° 1003.0 hPa 8.8 m/s 34.0 mm
14:00 15.5° 1004.1 hPa 8.7 m/s 34.5 mm 15.5° 1004.1 hPa 8.7 m/s 34.5 mm
17:00 16.6° 1004.4 hPa 7.9 m/s 35.9 mm 16.6° 1004.4 hPa 7.9 m/s 35.9 mm
20:00 16.4° 1006.2 hPa 7.5 m/s 36.9 mm 16.4° 1006.2 hPa 7.5 m/s 36.9 mm
23:00 13.7° 1008.4 hPa 5.9 m/s 36.9 mm 13.7° 1008.4 hPa 5.9 m/s 36.9 mm
 06:21     21:15    Daglengte: 14:54 Zaterdag 07 Aug
02:00 12.9° 1009.4 hPa 5.8 m/s 36.9 mm 12.9° 1009.4 hPa 5.8 m/s 36.9 mm
05:00 11.9° 1009.8 hPa 4.7 m/s 36.9 mm 11.9° 1009.8 hPa 4.7 m/s 36.9 mm
08:00 12.6° 1010.2 hPa 4.0 m/s 36.9 mm 12.6° 1010.2 hPa 4.0 m/s 36.9 mm
11:00 16.9° 1010.1 hPa 5.3 m/s 36.9 mm 16.9° 1010.1 hPa 5.3 m/s 36.9 mm
14:00 19.9° 1009.4 hPa 5.0 m/s 37.0 mm 19.9° 1009.4 hPa 5.0 m/s 37.0 mm
17:00 20.2° 1009.2 hPa 4.7 m/s 37.2 mm 20.2° 1009.2 hPa 4.7 m/s 37.2 mm
20:00 17.3° 1009.1 hPa 3.9 m/s 37.3 mm 17.3° 1009.1 hPa 3.9 m/s 37.3 mm
23:00 16.6° 1008.7 hPa 3.7 m/s 37.3 mm 16.6° 1008.7 hPa 3.7 m/s 37.3 mm
 06:23     21:14    Daglengte: 14:51 Zondag 08 Aug
02:00 16.1° 1008.3 hPa 3.5 m/s 37.6 mm 16.1° 1008.3 hPa 3.5 m/s 37.6 mm
08:00 15.9° 1008.3 hPa 5.2 m/s 57.7 mm 15.9° 1008.3 hPa 5.2 m/s 57.7 mm
14:00 20.4° 1010.8 hPa 9.0 m/s 57.9 mm 20.4° 1010.8 hPa 9.0 m/s 57.9 mm
20:00 15.8° 1012.8 hPa 8.7 m/s 59.3 mm 15.8° 1012.8 hPa 8.7 m/s 59.3 mm
 06:24     21:12    Daglengte: 14:48 Maandag 09 Aug
02:00 13.5° 1016.7 hPa 7.3 m/s 59.3 mm 13.5° 1016.7 hPa 7.3 m/s 59.3 mm
08:00 13.5° 1019.2 hPa 6.7 m/s 59.3 mm 13.5° 1019.2 hPa 6.7 m/s 59.3 mm
14:00 16.9° 1021.5 hPa 6.8 m/s 60.1 mm 16.9° 1021.5 hPa 6.9 m/s 60.1 mm
20:00 16.2° 1023.2 hPa 4.8 m/s 61.5 mm 16.2° 1023.2 hPa 4.8 m/s 61.4 mm
 06:26     21:10    Daglengte: 14:44 Dinsdag 10 Aug
02:00 11.7° 1025.0 hPa 3.1 m/s 61.5 mm 11.7° 1025.0 hPa 3.2 m/s 61.4 mm
08:00 12.4° 1024.9 hPa 3.2 m/s 61.5 mm 12.4° 1024.9 hPa 3.2 m/s 61.4 mm
14:00 19.4° 1024.6 hPa 4.5 m/s 61.6 mm 19.4° 1024.6 hPa 4.5 m/s 61.6 mm
20:00 20.0° 1020.1 hPa 2.7 m/s 0.4 mm
 06:27     21:08    Daglengte: 14:41 Woensdag 11 Aug
02:00 14.9° 1021.2 hPa 1.0 m/s 0.1 mm
08:00 14.5° 1021.1 hPa 1.1 m/s 0.0 mm
14:00 21.3° 1020.4 hPa 1.7 m/s 0.2 mm
20:00 20.2° 1020.0 hPa 1.9 m/s 0.6 mm
 06:29     21:06    Daglengte: 14:37 Donderdag 12 Aug
02:00 15.6° 1020.7 hPa 0.3 m/s 0.0 mm
08:00 15.2° 1020.4 hPa 0.2 m/s 0.1 mm
14:00 22.1° 1019.8 hPa 1.0 m/s 0.4 mm
20:00 21.1° 1019.3 hPa 1.4 m/s 0.4 mm
 06:30     21:05    Daglengte: 14:35 Vrijdag 13 Aug
02:00 16.5° 1020.1 hPa 0.2 m/s 0.1 mm
08:00 15.9° 1020.2 hPa 0.7 m/s 0.2 mm
14:00 22.4° 1019.8 hPa 1.4 m/s 0.4 mm
20:00 21.0° 1019.1 hPa 1.1 m/s 0.2 mm
 06:32     21:03    Daglengte: 14:31 Zaterdag 14 Aug
02:00 16.5° 1019.7 hPa 0.5 m/s 0.7 mm
08:00 15.9° 1019.5 hPa 0.7 m/s 0.3 mm
14:00 22.2° 1019.0 hPa 1.4 m/s 0.4 mm
20:00 21.1° 1018.2 hPa 1.3 m/s 0.5 mm
 06:33     21:01    Daglengte: 14:28 Zondag 15 Aug
02:00 16.5° 1018.8 hPa 0.5 m/s 0.2 mm
08:00 15.8° 1018.5 hPa 1.0 m/s 0.2 mm
14:00 22.1° 1018.1 hPa 2.1 m/s 0.2 mm
20:00 20.8° 1017.7 hPa 2.3 m/s 0.4 mm
FMI Hirlam - 7.5 km EWN WRFDA - 12 km DWD ICON - 7 km GFS - 25 km Basiskaart






























































Updatetijd (Europe/Amsterdam) Resolutie Lengte Stap
FMI Hirlam 19:00, 01:00, 07:00, 13:00 7.5 km 49h 1h
EWN WRFDA 22:15, 04:15, 10:15, 16:15 12 km 73h 1h
DWD ICON 18:15, 00:15, 06:15, 12:15 7 km 75h 1h
GFS 20:15, 02:15, 08:15, 14:15 25 km 237h 3h
30+ mm
25-30 mm
20-25 mm
15-20 mm
10-15 mm
6-10 mm
4-6 mm
2-4 mm
1-2 mm
0.5-1 mm
0.2-0.5 mm
0.1-0.2 mm
30+ mm
25-30 mm
20-25 mm
15-20 mm
10-15 mm
6-10 mm
4-6 mm
2-4 mm
1-2 mm
0.5-1 mm
0.2-0.5 mm
0.1-0.2 mm
Sneeuwval
Natte sneeuw
Hagel
Vorst
30+ mm
25-30 mm
20-25 mm
15-20 mm
10-15 mm
6-10 mm
4-6 mm
2-4 mm
1-2 mm
0.5-1 mm
0.2-0.5 mm
0.1-0.2 mm
Sneeuwval
Natte sneeuw
Hagel
Vorst
Onweer
50 mm
40 mm
30 mm
26 mm
22 mm
18 mm
14 mm
10 mm
9 mm
8 mm
7 mm
6 mm
5 mm
4.5 mm
4 mm
3.5 mm
3 mm
2.5 mm
2 mm
1.5 mm
1 mm
0.8 mm
0.6 mm
0.4 mm
0.2 mm
0.05 mm
35°
30°
25°
20°
15°
10°
-5°
-10°
-15°
-20°
-25°
-30°
-35°
33> m/s
29 m/s
25 m/s
21 m/s
17 m/s
14 m/s
11 m/s
8 m/s
5 m/s
3 m/s
0 m/s
2600 J/kg
2400 J/kg
2200 J/kg
2000 J/kg
1800 J/kg
1600 J/kg
1400 J/kg
1200 J/kg
1000 J/kg
800 J/kg
600 J/kg
400 J/kg
200 J/kg
70 dBZ
65 dBZ
60 dBZ
55 dBZ
50 dBZ
45 dBZ
40 dBZ
35 dBZ
30 dBZ
25 dBZ
20 dBZ
15 dBZ
10 dBZ
5 dBZ
-1 K
-2 K
-3 K
-4 K
-5 K
-6 K
-7 K
-8 K
-9 K
950 m²/s²
900 m²/s²
850 m²/s²
800 m²/s²
750 m²/s²<